Location: Unspecified
(0.0000°N, 0.0000°E)
Time: 21:35:06
(UTC+00:00)

Vanguard 1 Rocket - Pass Details

Date: 22 January 2020
Orbit: 650 x 4226 km, 34.3° (Epoch: 23 February)

Event Time Altitude Azimuth Distance (km) Brightness Sun altitude
Rises 21:00:57 0° 281° (W) 8,461 12.9 -39.4°
Reaches altitude 10° 21:08:27 10° 272° (W) 7,274 12.5 -41.1°
Maximum altitude 21:27:37 31° 218° (SW) 4,578 11.1 -45.3°
Drops below altitude 10° 21:40:10 10° 160° (SSE) 4,740 11.1 -48.0°
Sets 21:43:50 0° 149° (SSE) 5,278 11.3 -48.8°
